#timestamp,LO_Frequency,Hit,Temp,Hum 
1487098815.9,286047017.0,N,0.0,0.0
1487098835.7,286047011.8,N,0.0,0.0
1487098855.5,286047010.0,N,0.0,0.0
1487098875.4,286047012.1,N,0.0,0.0
1487098895.2,286047011.2,N,0.0,0.0
1487098915.0,286047015.3,N,0.0,0.0
1487098915.9,286047015.3,N,0.0,0.0
1487098935.8,286047017.5,N,0.0,0.0
1487098955.6,286047016.9,N,0.0,0.0
1487098975.4,286047015.5,N,0.0,0.0
1487098995.2,286047013.0,N,0.0,0.0
1487099015.1,286047012.6,N,0.0,0.0
1487099016.0,286047012.6,N,0.0,0.0
1487099035.8,286047018.8,N,0.0,0.0
1487099055.6,286047017.8,N,0.0,0.0
1487099075.5,286047020.0,N,0.0,0.0
1487099095.3,286047016.0,N,0.0,0.0
1487099115.1,286047021.9,N,0.0,0.0
1487099135.9,286047021.9,N,0.0,0.0
1487099155.7,286047022.0,N,0.0,0.0
1487099175.5,286047023.0,N,0.0,0.0
1487099195.4,286047021.3,N,0.0,0.0
1487099215.2,286047022.6,N,0.0,0.0
1487099235.0,286047022.6,N,0.0,0.0
1487099235.9,286047022.6,N,0.0,0.0
1487099255.8,286047023.5,N,0.0,0.0
1487099275.6,286047024.9,N,0.0,0.0
1487099295.4,286047028.3,N,0.0,0.0
1487099315.3,286047026.7,N,0.0,0.0
1487099335.1,286047022.2,N,0.0,0.0
1487099336.0,286047022.2,N,0.0,0.0
1487099355.8,286047025.4,N,0.0,0.0
1487099375.7,286047023.7,N,0.0,0.0
1487099395.5,286047029.6,N,0.0,0.0
1487099415.3,286047028.2,N,0.0,0.0
1487099435.2,286047028.9,N,0.0,0.0
1487099455.9,286047027.3,N,0.0,0.0
1487099475.7,286047027.7,N,0.0,0.0
1487099495.0,286047029.0,N,0.0,0.0
1487099495.9,286047029.0,N,0.0,0.0
1487099515.7,286047029.2,N,0.0,0.0
1487099535.6,286047029.3,N,0.0,0.0
1487099555.4,286047032.9,Y,0.0,0.0
1487099575.3,286047010.7,N,0.0,0.0
1487099595.1,286047009.6,N,0.0,0.0
1487099596.0,286047009.6,N,0.0,0.0
1487099615.8,286047010.1,N,0.0,0.0
1487099635.7,286047012.0,N,0.0,0.0
1487099655.5,286047011.3,N,0.0,0.0
1487099675.3,286047012.0,N,0.0,0.0
1487099695.1,286047012.4,N,0.0,0.0
1487099715.9,286047012.6,N,0.0,0.0
1487099735.7,286047015.4,N,0.0,0.0
1487099755.5,286047017.1,N,0.0,0.0
1487099775.4,286047015.2,N,0.0,0.0
1487099795.2,286047017.2,N,0.0,0.0
1487099815.0,286047018.1,N,0.0,0.0
1487099815.9,286047018.1,N,0.0,0.0
1487099835.8,286047018.0,N,0.0,0.0
1487099855.6,286047017.8,N,0.0,0.0
1487099875.4,286047019.0,N,0.0,0.0
1487099895.3,286047019.8,N,0.0,0.0
1487099915.1,286047019.6,N,0.0,0.0
1487099935.8,286047026.5,Y,0.0,0.0
1487099955.7,286047010.4,N,0.0,0.0
1487099975.5,286047004.9,N,0.0,0.0
1487099995.3,286047002.9,N,0.0,0.0
1487100015.2,286047007.9,N,0.0,0.0
1487100035.9,286047008.8,N,0.0,0.0
1487100055.7,286047008.4,N,0.0,0.0
1487100075.6,286047007.9,N,0.0,0.0
1487100095.4,286047009.6,N,0.0,0.0
1487100115.2,286047010.4,N,0.0,0.0
1487100135.1,286047013.7,N,0.0,0.0
1487100136.0,286047013.7,N,0.0,0.0
1487100155.8,286047012.7,N,0.0,0.0
1487100175.6,286047013.7,N,0.0,0.0
1487100195.5,286047013.0,N,0.0,0.0
1487100215.3,286047012.9,N,0.0,0.0
1487100235.1,286047010.9,N,0.0,0.0
1487100255.9,286047013.4,N,0.0,0.0
1487100275.7,286047013.7,N,0.0,0.0
1487100295.5,286047017.1,N,0.0,0.0
1487100315.4,286047016.6,N,0.0,0.0
1487100335.2,286047014.0,N,0.0,0.0
1487100355.0,286047012.5,N,0.0,0.0
1487100355.9,286047012.5,N,0.0,0.0
1487100375.8,286047015.3,N,0.0,0.0
1487100395.6,286047016.5,N,0.0,0.0
1487100415.4,286047012.8,N,0.0,0.0
1487100435.3,286047016.2,N,0.0,0.0
1487100455.1,286047017.6,N,0.0,0.0
1487100456.0,286047017.6,N,0.0,0.0
1487100475.8,286047019.9,N,0.0,0.0
1487100495.6,286047017.3,N,0.0,0.0
1487100515.5,286047021.8,Y,0.0,0.0
1487100535.3,286047003.1,N,0.0,0.0
1487100555.2,286047002.3,N,0.0,0.0
1487100575.9,286046998.3,N,0.0,0.0
1487100595.7,286046993.0,N,0.0,0.0
1487100615.6,286047009.7,N,0.0,0.0
1487100635.4,286047011.7,N,0.0,0.0
1487100655.2,286047010.5,N,0.0,0.0
1487100675.0,286047001.3,N,0.0,0.0
1487100676.0,286047001.3,N,0.0,0.0
1487100695.8,286047000.2,N,0.0,0.0
1487100715.6,286046999.9,N,0.0,0.0
1487100735.4,286047005.7,N,0.0,0.0
1487100755.3,286047002.9,N,0.0,0.0
1487100775.1,286047001.9,N,0.0,0.0
1487100795.8,286047003.4,N,0.0,0.0
1487100815.7,286047004.8,N,0.0,0.0
1487100835.5,286047005.2,N,0.0,0.0
1487100855.4,286047007.0,N,0.0,0.0
1487100875.2,286047006.2,N,0.0,0.0
1487100895.0,286047006.4,N,0.0,0.0
1487100895.9,286047006.4,N,0.0,0.0
1487100915.8,286047006.3,N,0.0,0.0
1487100935.6,286047007.6,N,0.0,0.0
1487100955.4,286047006.4,N,0.0,0.0
1487100975.3,286047005.0,N,0.0,0.0
1487100995.1,286047008.0,N,0.0,0.0
1487100996.0,286047008.0,N,0.0,0.0
1487101015.8,286047010.5,N,0.0,0.0
1487101035.7,286047010.1,N,0.0,0.0
1487101055.5,286047009.9,N,0.0,0.0
1487101075.3,286047011.7,N,0.0,0.0
1487101095.2,286047008.5,N,0.0,0.0
1487101115.9,286047008.3,N,0.0,0.0
1487101135.7,286047009.9,N,0.0,0.0
1487101155.5,286047010.3,N,0.0,0.0
1487101175.4,286047009.8,N,0.0,0.0
1487101195.2,286047015.2,N,0.0,0.0
1487101215.0,286047012.9,N,0.0,0.0
1487101215.9,286047012.9,N,0.0,0.0
1487101235.8,286047013.1,N,0.0,0.0
1487101255.6,286047015.5,N,0.0,0.0
1487101275.4,286047014.9,N,0.0,0.0
1487101295.3,286047017.1,N,0.0,0.0
1487101315.1,286047017.7,Y,0.0,0.0
1487101335.8,286047008.3,N,0.0,0.0
1487101355.7,286047010.0,N,0.0,0.0
1487101375.5,286047010.4,N,0.0,0.0
1487101395.3,286047012.3,N,0.0,0.0
1487101415.2,286047009.2,N,0.0,0.0
1487101435.0,286047006.1,N,0.0,0.0
1487101455.1,286047010.3,N,0.0,0.0
1487101456.0,286047010.3,N,0.0,0.0
1487101475.8,286047013.6,N,0.0,0.0
1487101495.6,286047014.0,N,0.0,0.0
1487101515.5,286047012.1,N,0.0,0.0
1487101535.3,286047009.3,N,0.0,0.0
1487101555.1,286047012.4,N,0.0,0.0
1487101575.9,286047014.4,N,0.0,0.0
1487101595.7,286047017.0,Y,0.0,0.0
1487101615.5,286047004.5,N,0.0,0.0
1487101635.4,286047007.6,N,0.0,0.0
1487101655.2,286047009.7,N,0.0,0.0
1487101675.0,286047012.2,N,0.0,0.0
1487101675.9,286047012.2,N,0.0,0.0
1487101695.8,286047010.1,N,0.0,0.0
1487101715.6,286047010.3,N,0.0,0.0
1487101735.4,286047007.9,N,0.0,0.0
1487101755.2,286047006.9,N,0.0,0.0
1487101775.1,286047006.0,N,0.0,0.0
1487101776.0,286047006.0,N,0.0,0.0
1487101795.8,286047003.9,N,0.0,0.0
1487101815.6,286047001.7,N,0.0,0.0
1487101835.5,286046998.9,N,0.0,0.0
1487101855.3,286046998.4,N,0.0,0.0
1487101875.1,286046997.1,N,0.0,0.0
1487101895.9,286046995.2,N,0.0,0.0
1487101915.7,286046990.8,N,0.0,0.0
1487101935.5,286046991.1,N,0.0,0.0
1487101955.4,286046990.9,N,0.0,0.0
1487101975.7,286046985.1,N,0.0,0.0
1487101995.5,286046986.0,N,0.0,0.0
1487102015.4,286046981.0,N,0.0,0.0
1487102035.2,286046985.1,N,0.0,0.0
1487102055.0,286046976.0,Y,0.0,0.0
1487102055.9,286046976.0,N,0.0,0.0
1487102075.8,286046966.3,Y,0.0,0.0
1487102095.6,286046963.9,Y,0.0,0.0
1487102115.4,286046958.8,Y,0.0,0.0
1487102135.3,286046953.6,Y,0.0,0.0
1487102155.1,286046951.0,Y,0.0,0.0
1487102175.9,286046948.4,Y,0.0,0.0
1487102195.7,286046945.9,Y,0.0,0.0
1487102215.5,286046946.8,Y,0.0,0.0
1487102235.4,286046944.7,Y,0.0,0.0
1487102255.2,286046944.9,Y,0.0,0.0
1487102275.1,286046944.7,N,0.0,0.0
1487102276.0,286046944.7,N,0.0,0.0
1487102295.8,286046944.8,N,0.0,0.0
1487102315.6,286046946.2,N,0.0,0.0
1487102335.5,286046946.3,N,0.0,0.0
1487102355.3,286046945.0,N,0.0,0.0
1487102375.1,286046941.2,N,0.0,0.0
1487102395.9,286046942.1,N,0.0,0.0
